#timestamp,LO_Frequency,Hit,StdDev 
1665349215.4,286046987.8,N
1665349235.2,286046984.6,N
1665349255.0,286046982.8,N
1665349255.9,286046982.8,N
1665349275.8,286046984.5,N
1665349295.6,286046980.5,N
1665349315.4,286046982.7,N
1665349335.3,286046981.4,N
1665349355.1,286046982.9,N
1665349375.9,286046980.9,N
1665349395.7,286046981.7,N
1665349415.5,286046985.1,N
1665349435.4,286046985.4,N
1665349455.2,286046985.3,N
1665349475.0,286046987.8,N
1665349476.0,286046987.8,N
1665349495.8,286046986.3,N
1665349515.6,286046985.0,N
1665349535.5,286046982.4,N
1665349555.3,286046988.3,N
1665349575.1,286046988.1,N
1665349595.9,286046990.0,N
1665349615.7,286046987.5,N
1665349635.6,286046985.8,N
1665349655.4,286046985.5,N
1665349675.2,286046989.3,N
1665349695.1,286046991.1,N
1665349696.0,286046991.1,N
1665349715.8,286046993.0,N
1665349735.7,286046992.7,N
1665349755.5,286046990.8,N
1665349775.3,286046991.4,N
1665349795.2,286046989.3,N
1665349815.9,286046991.5,N
1665349835.7,286046994.1,N
1665349855.6,286046991.9,N
1665349875.4,286046995.2,N
1665349895.2,286046992.2,N
1665349915.1,286046991.4,N
1665349916.0,286046991.4,N
1665349935.8,286046985.8,Y
1665349955.7,286046999.7,P
1665349975.5,286046999.5,N
1665349995.3,286047002.1,N
1665350015.2,286047009.2,N
1665350035.0,286047003.9,N
1665350035.9,286047003.9,N
1665350055.8,286047001.4,N
1665350075.6,286047002.2,N
1665350095.4,286047008.8,N
1665350115.3,286047008.9,N
1665350135.1,286047002.9,N
1665350155.8,286047005.1,N
1665350175.7,286047011.9,N
1665350195.5,286047010.3,N
1665350215.3,286047008.0,N
1665350235.2,286047009.1,N
1665350255.0,286047006.5,N
1665350255.9,286047006.5,N
1665350275.8,286047005.0,N
1665350295.6,286047001.6,N
1665350315.4,286047002.6,N
1665350335.3,286047004.8,N
1665350355.1,286047008.5,N
1665350375.8,286047006.1,N
1665350395.7,286047009.8,N
1665350415.5,286047013.8,N
1665350435.4,286047011.8,N
1665350455.2,286047012.8,N
1665350475.0,286047015.5,Y
1665350475.9,286047015.5,P
1665350495.8,286047008.8,N
1665350515.6,286047011.9,N
1665350535.4,286047004.7,N
1665350555.3,286047008.6,N
1665350575.1,286047007.1,N
1665350595.9,286047006.9,N
1665350615.7,286047001.7,N
1665350635.5,286047001.8,N
1665350655.4,286047012.4,Y
1665350675.2,286047005.6,P
1665350695.0,286047006.0,P
1665350695.9,286047006.0,P
1665350715.8,286047004.4,Y
1665350735.6,286046998.5,P
1665350755.5,286046997.4,N
1665350775.3,286046999.1,N
1665350795.1,286047000.5,N
1665350815.9,286047002.4,N
1665350835.7,286046998.1,N
1665350855.5,286046995.5,N
1665350875.4,286047000.2,N
1665350895.2,286047011.1,Y
1665350915.1,286047008.3,P
1665350916.0,286047008.3,N
1665350935.8,286047008.5,N
1665350955.6,286047008.8,N
1665350975.5,286047007.6,N
1665350995.3,286047007.1,N
1665351015.1,286047007.3,N
1665351035.9,286047004.7,N
1665351055.7,286047009.6,Y
1665351075.6,286047003.9,P
1665351095.4,286047001.6,N
1665351115.2,286047001.0,N
1665351135.1,286046999.6,N
1665351136.0,286046999.6,N
1665351155.8,286046997.9,N
1665351175.6,286046993.5,N
1665351195.5,286046994.9,N
1665351215.3,286046994.1,N
1665351235.2,286046993.3,N
1665351255.9,286046995.7,N
1665351275.7,286046995.4,N
1665351295.6,286046998.0,N
1665351315.4,286046996.5,N
1665351335.2,286046996.7,N
1665351355.1,286046997.3,N
1665351356.0,286046997.3,N
1665351375.8,286046995.1,N
1665351395.7,286046993.5,N
1665351415.5,286046996.4,N
1665351435.3,286046993.6,N
1665351455.2,286046999.7,N
1665351475.0,286047003.5,N
1665351475.9,286047003.5,N
1665351495.7,286047001.4,N
1665351515.6,286047000.1,N
1665351535.4,286046995.2,N
1665351555.3,286046996.6,N
1665351575.1,286046999.1,N
1665351595.9,286047004.9,N
1665351615.7,286047004.3,N
1665351635.5,286047008.6,N
1665351655.4,286047008.7,N
1665351675.2,286047008.4,N
1665351695.0,286047010.4,N
1665351695.9,286047010.4,N
1665351715.8,286047012.9,N
1665351735.6,286047013.9,N
1665351755.5,286047023.6,Y
1665351775.3,286047023.0,P
1665351795.1,286047019.7,N
1665351815.9,286047015.0,N
1665351835.7,286047015.7,N
1665351855.5,286047016.6,N
1665351875.4,286047016.9,N
1665351895.2,286047019.9,Y
1665351915.1,286047000.5,P
1665351916.0,286047000.5,N
1665351935.8,286047004.4,N
1665351955.6,286047009.1,N
1665351975.5,286047009.6,N
1665351995.3,286047015.4,N
1665352015.1,286047019.5,Y
1665352035.9,286047018.8,P
1665352055.7,286047024.1,P
1665352075.6,286047025.9,P
1665352095.4,286047019.4,N
1665352115.2,286047018.4,N
1665352135.1,286047014.1,N
1665352136.0,286047014.1,N
1665352155.8,286047013.2,N
1665352175.7,286047011.0,N
1665352195.5,286047008.4,N
1665352215.3,286047006.3,N
1665352235.2,286047008.9,N
1665352255.0,286047012.4,N
1665352255.9,286047012.4,N
1665352275.7,286047010.9,N
1665352295.6,286047011.5,N
1665352315.4,286047010.5,N
1665352335.3,286047011.9,N
1665352355.1,286047012.7,N
1665352356.0,286047012.7,N
1665352375.8,286047013.0,N
1665352395.7,286047014.8,Y
1665352415.5,286047003.6,P
1665352435.3,286047010.8,N
1665352455.2,286047010.5,N
1665352475.0,286047009.4,N
1665352475.9,286047009.4,N
1665352495.8,286047014.5,Y
1665352515.6,286047002.4,P
1665352535.4,286047004.3,N
1665352555.3,286047000.1,N
1665352575.1,286046998.1,N
1665352595.8,286046999.1,N
1665352615.7,286046993.0,N
1665352635.5,286046988.4,N
1665352655.4,286046987.2,N
1665352675.2,286046989.7,N
1665352695.0,286046987.0,N
1665352695.9,286046987.0,N
1665352715.8,286046989.7,N
1665352735.6,286046988.1,N
1665352755.4,286046992.5,N
1665352775.3,286046992.5,N
1665352795.1,286046997.7,N
